Grafton, IL

3:22 AM CST on February 25, 2017 (GMT -0600)
Saint Charles County Smartt

Weather History for KSET - August, 2014

Change the Weather History Date:

Saturday, August 23, 2014

  Actual Average (KSTL) Record (KSTL)
Temperature  
Mean Temperature 85 °F -  
Max Temperature 96 °F 86 °F 102 °F (1947)
Min Temperature 75 °F 66 °F 54 °F (1966)
Cooling Degree Days 20    
Growing Degree Days 35 (Base 50)    
Moisture  
Dew Point 75 °F    
Average Humidity 81    
Maximum Humidity 97    
Minimum Humidity 52    
Precipitation  
Precipitation 0.00 in - - ()
Sea Level Pressure  
Sea Level Pressure 29.90 in    
Wind  
Wind Speed 2 mph (ENE)    
Max Wind Speed 9 mph    
Max Gust Speed -    
Visibility 7 miles    
Events Fog    
Averages and records for this station are not official NWS values.
T = Trace of Precipitation, MM = Missing Value Source: NWS Daily Summary

Daily Weather History Graph

Daily Weather History Graph

Search for Another Location

Airport or City:

Trip Planner

Search our weather history database for the weather conditions in past years. The results will help you decide how hot, cold, wet, or windy it might be!

Date:

Astronomy

Aug. 23, 2014 Rise Set
Actual Time 6:22 AM CDT 7:45 PM CDT
Civil Twilight 5:54 AM CDT 8:13 PM CDT
Nautical Twilight 5:21 AM CDT 8:46 PM CDT
Astronomical Twilight 4:45 AM CDT 9:21 PM CDT
Moon 4:39 AM CDT (8/23) 6:30 PM CDT (8/23)
Length of Visible Light 14h 18m
Length of Day
13h 22m
Waning Crescent, 3% of the Moon is Illuminated
Aug 23
Waning Crescent
Aug 25
New
Sep 2
First Quarter
Sep 8
Full
Sep 15
Last Quarter

Hourly Weather History & Observations

Time (CDT) Temp. Heat Index Dew Point Humidity Pressure Visibility Wind Dir Wind Speed Gust Speed Precip Events Conditions
12:54 AM 78.1 °F - 75.9 °F 93% 29.91 in 6.0 mi Calm Calm - N/A   Clear
1:54 AM 77.0 °F - 75.0 °F 94% 29.90 in 6.0 mi ESE 5.8 mph - N/A   Clear
2:54 AM 75.9 °F - 75.0 °F 97% 29.90 in 4.0 mi East 3.5 mph - N/A   Clear
4:54 AM 75.9 °F - 75.0 °F 97% 29.90 in 4.0 mi ESE 3.5 mph - N/A   Clear
5:49 AM 75.2 °F - 73.4 °F 94% 29.91 in 2.5 mi Calm Calm - N/A   Clear
6:14 AM 75.9 °F - 75.0 °F 97% 29.92 in 1.8 mi Calm Calm - N/A   Clear
6:29 AM 75.9 °F - 73.9 °F 94% 29.92 in 2.5 mi Calm Calm - N/A   Clear
6:39 AM 75.9 °F - 73.9 °F 94% 29.92 in 4.0 mi Calm Calm - N/A   Clear
6:54 AM 75.0 °F - 73.9 °F 96% 29.91 in 3.0 mi Calm Calm - N/A   Clear
6:59 AM 75.0 °F - 73.9 °F 96% 29.93 in 1.5 mi Calm Calm - N/A   Clear
7:02 AM 75.0 °F - 73.0 °F 94% 29.93 in 0.5 mi Calm Calm - N/A Fog Fog
7:18 AM 75.9 °F - 75.0 °F 97% 29.94 in 1.5 mi Calm Calm - N/A   Partly Cloudy
7:22 AM 75.9 °F - 75.0 °F 97% 29.94 in 3.0 mi Calm Calm - N/A   Partly Cloudy
7:54 AM 79.0 °F - 77.0 °F 94% 29.92 in 5.0 mi SW 3.5 mph - N/A   Clear
8:54 AM 82.9 °F 90.2 °F 75.0 °F 77% 29.94 in 10.0 mi West 5.8 mph - N/A   Clear
9:54 AM 87.1 °F 95.4 °F 73.9 °F 65% 29.94 in 10.0 mi West 8.1 mph - N/A   Clear
10:54 AM 90.0 °F 97.9 °F 73.0 °F 57% 29.94 in 10.0 mi WNW 6.9 mph - N/A   Clear
11:54 AM 91.9 °F 100.7 °F 73.0 °F 54% 29.92 in 10.0 mi WNW 5.8 mph - N/A   Clear
12:54 PM 93.0 °F 104.6 °F 75.0 °F 56% 29.92 in 10.0 mi North 9.2 mph - N/A   Clear
1:54 PM 93.0 °F 103.2 °F 73.9 °F 54% 29.91 in 10.0 mi ENE 3.5 mph - N/A   Clear
2:54 PM 93.0 °F 104.6 °F 75.0 °F 56% 29.89 in 10.0 mi Calm Calm - N/A   Clear
3:54 PM 93.9 °F 104.0 °F 73.9 °F 52% 29.87 in 10.0 mi Calm Calm - N/A   Clear
4:54 PM 95.0 °F 108.2 °F 75.9 °F 54% 29.86 in 10.0 mi NNE 4.6 mph - N/A   Clear
5:54 PM 93.9 °F 104.0 °F 73.9 °F 52% 29.86 in 10.0 mi Calm Calm - N/A   Clear
6:54 PM 89.1 °F 106.4 °F 80.1 °F 75% 29.85 in 10.0 mi Calm Calm - N/A   Clear
7:54 PM 86.0 °F 102.5 °F 81.0 °F 85% 29.85 in 10.0 mi Calm Calm - N/A   Clear
8:54 PM 82.0 °F 91.6 °F 79.0 °F 90% 29.87 in 10.0 mi ENE 3.5 mph - N/A   Clear
9:54 PM 80.1 °F 85.8 °F 77.0 °F 90% 29.88 in 10.0 mi ESE 3.5 mph - N/A   Clear
10:54 PM 79.0 °F - 75.9 °F 90% 29.89 in 10.0 mi East 5.8 mph - N/A   Clear
11:54 PM 77.0 °F - 75.0 °F 94% 29.89 in 9.0 mi East 6.9 mph - N/A   Clear